This is the latest recevied weather packets stored in our database for station/object N4ASP-13. If no packets are shown the sender has not sent any weather packets the latest 10 day(s).
| Time | Temp. | Humidity | Pressure | Rain* | Wind** | Luminosity | Snow |
|---|---|---|---|---|---|---|---|
| 1778010710 | 22.78° C | 46% | 1014.5 hPa | 0 mm | - | 540 W/m² | - |
| 1778010652 | 22.78° C | 45% | 1014.7 hPa | 0 mm | - | 533 W/m² | - |
| 1778010590 | 22.78° C | 46% | 1014.7 hPa | 0 mm | - | 548 W/m² | - |
| 1778010530 | 22.78° C | 45% | 1014.6 hPa | 0 mm | - | 557 W/m² | - |
| 1778010470 | 22.78° C | 46% | 1014.7 hPa | 0 mm | - | 578 W/m² | - |
| 1778010405 | 22.78° C | 46% | 1014.6 hPa | 0 mm | - | 642 W/m² | - |
| 1778010343 | 22.78° C | 45% | 1014.5 hPa | 0 mm | - | 425 W/m² | - |
| 1778010282 | 22.78° C | 45% | 1014.6 hPa | 0 mm | - | 425 W/m² | - |
| 1778010224 | 22.78° C | 44% | 1014.6 hPa | 0 mm | - | 670 W/m² | - |
| 1778010163 | 22.78° C | 44% | 1014.6 hPa | 0 mm | - | 705 W/m² | - |
| 1778010095 | 23.33° C | 45% | 1014.8 hPa | 0 mm | - | 666 W/m² | - |
| 1778010037 | 23.33° C | 45% | 1014.5 hPa | 0 mm | - | 664 W/m² | - |
| 1778009977 | 23.33° C | 43% | 1014.6 hPa | 0 mm | - | 617 W/m² | - |
| 1778009916 | 23.33° C | 45% | 1014.6 hPa | 0 mm | - | 613 W/m² | - |
| 1778009857 | 23.33° C | 45% | 1014.6 hPa | 0 mm | - | 571 W/m² | - |
| 1778009789 | 23.33° C | 44% | 1014.5 hPa | 0 mm | - | 673 W/m² | - |
| 1778009731 | 23.33° C | 45% | 1014.6 hPa | 0 mm | - | 770 W/m² | - |
| 1778009670 | 23.33° C | 45% | 1014.8 hPa | 0 mm | - | 766 W/m² | - |
| 1778009609 | 23.33° C | 46% | 1014.6 hPa | 0 mm | - | 831 W/m² | - |
| 1778009547 | 23.33° C | 46% | 1014.7 hPa | 0 mm | - | 847 W/m² | - |
| 1778009483 | 23.33° C | 45% | 1014.7 hPa | 0 mm | - | 860 W/m² | - |
| 1778009423 | 23.33° C | 45% | 1014.8 hPa | 0 mm | - | 868 W/m² | - |
| 1778009363 | 23.33° C | 45% | 1014.7 hPa | 0 mm | - | 853 W/m² | - |
| 1778009304 | 23.33° C | 45% | 1014.8 hPa | 0 mm | - | 879 W/m² | - |
| 1778009241 | 23.33° C | 46% | 1014.9 hPa | 0 mm | - | 807 W/m² | - |
* Rain latest hour (hover to see other rain measurements)
** Current wind speed in m/s (hover to see current wind gust speed)